User: anonymous   Login
Location: Theydon Bois
(51.6750°N, 0.1050°E)
Time: 02:21:38
(UTC+01:00)
Language:

Spot 2 Rocket - Orbit

View from above orbital plane
View from above orbital plane
View from above satellite
View from above satellite

Ground track
Ground track

The orbit data is extracted from the following two-line orbital elements,

1 20443U 90005H   17293.75608604  .00000101  00000-0  48354-4 0  9995
2 20443  98.7131 334.6701 0010165 355.2236   4.8851 14.37998777452860
Epoch (UTC): 20 October 2017 18:08:45
Eccentricity: 0.0010165
inclination: 98.7131°
perigee height: 758 km
apogee height: 772 km
right ascension of ascending node: 334.6701°
argument of perigee: 355.2236°
revolutions per day: 14.37998777
mean anomaly at epoch: 4.8851°
orbit number at epoch: 45286

The dashed part of the orbit path shows where the satellite is in the earth's shadow,  

DLR